Location: Newark
(33.0600°N, 86.0531°W)
Time: 09:23:57
(UTC+00:00)

N. Korean satellite - Visible Passes

Search period start: 12 November 2019 00:00
Search period end: 22 November 2019 00:00
Orbit: 456 x 506 km, 97.2° (Epoch: 11 November)

Date Brightness Start Highest point End Pass type
(mag) Time Alt. Az. Time Alt. Az. Time Alt. Az.
12 Nov 9.7 10:47:37 10° NE 10:50:20 19° E 10:53:00 10° SE visible
14 Nov 10.3 00:01:34 10° WSW 00:02:41 11° W 00:03:49 10° WNW visible
14 Nov 6.8 11:29:20 10° NNE 11:33:03 78° ESE 11:36:43 10° S visible
14 Nov 9.2 23:34:12 10° SSW 23:37:09 25° W 23:40:10 10° NW visible
15 Nov 8.6 11:04:18 10° NNE 11:07:39 32° E 11:10:58 10° SSE visible
15 Nov 7.3 23:08:12 10° S 23:11:43 58° W 23:15:19 10° NNW visible
16 Nov 10.0 10:40:00 10° ENE 10:42:10 15° E 10:44:18 10° SE visible
17 Nov 6.7 11:46:37 10° N 11:50:15 57° WNW 11:53:50 10° SSW visible
17 Nov 10.0 23:52:24 10° SW 23:54:28 15° W 23:56:34 10° WNW visible
18 Nov 7.3 11:21:16 10° NNE 11:24:55 58° E 11:28:30 10° S visible
18 Nov 8.7 23:25:44 10° SSW 23:28:58 32° W 23:32:17 10° NNW visible
19 Nov 9.1 10:56:23 10° NE 10:59:28 25° E 11:02:30 10° SSE visible
20 Nov 10.2 10:32:40 10° ENE 10:33:57 11° E 10:35:13 10° ESE visible
21 Nov 6.5 11:38:26 10° N 11:42:06 75° WNW 11:45:42 10° SSW visible
21 Nov 9.7 23:43:37 10° SW 23:46:14 19° W 23:48:54 10° NW visible
